DW0333 Tranby-Lier NO current weather conditions

sailwx.info

Wind from 160 at 3 knots

Air temperature -6.1° C
Dewpoint -6.9° C

Last reported at 2018-Feb-24 11:56 UTC.
Time now 2018-Feb-24 12:19 UTC

Location: N 59°50' E 010°17'.
View on Google Maps.

See reports from other nearby stations

  
Tides and Currents Weather Stations Pressure Air Temp Water Temp Dewpoint Dewpoint Depression Visibility Wind Speed Wind Dir Waves Ship Positions
date/time (UTC)wind fromknots sea level pressurealtimeterstation pressurevisibilityair tempwater tempwave heightnotes
2018-Feb-24 11:56 160 3 -6.1
2018-Feb-24 11:41 149 2 -6.1
2018-Feb-24 11:26 170 1 -6.1
2018-Feb-24 11:11 139 2 -6.1
2018-Feb-24 10:56 138 1 -6.1
2018-Feb-24 10:41 090 1 -6.1
2018-Feb-24 10:26 096 1 -6.1
2018-Feb-24 10:11 096 2 -6.1
2018-Feb-24 09:56 104 1 -6.1
2018-Feb-24 09:41 113 1 -6.7
2018-Feb-24 09:26 065 1 -6.7
2018-Feb-24 09:08 062 1 -6.7
2018-Feb-24 08:53 058 1 -7.2
2018-Feb-24 08:38 069 1 -7.2
2018-Feb-24 08:23 056 2 -7.2
2018-Feb-24 08:07 054 2 -7.2
2018-Feb-24 07:52 059 1 -7.2
2018-Feb-24 07:37 042 1 -7.2
2018-Feb-24 07:22 063 1 -7.2
2018-Feb-24 07:06 081 0 -7.2
2018-Feb-24 06:51 059 0 -7.2
2018-Feb-24 06:36 057 0 -7.2
2018-Feb-24 06:21 079 1 -7.2
2018-Feb-24 06:06 054 1 -7.2
2018-Feb-24 05:51 062 1 -7.2
2018-Feb-24 05:36 081 1 -7.2
2018-Feb-24 05:21 057 2 -7.2
2018-Feb-24 05:04 039 2 -7.2
2018-Feb-24 04:49 071 2 -7.2
2018-Feb-24 04:33 104 3 -7.2
2018-Feb-24 04:18 070 2 -6.7
2018-Feb-24 04:03 040 1 -6.7
2018-Feb-24 03:48 085 2 -6.7
2018-Feb-24 03:32 105 3 -6.7
2018-Feb-24 03:17 069 3 -6.1
2018-Feb-24 03:01 041 2 -6.1
2018-Feb-24 02:47 059 2 -6.1
2018-Feb-24 02:31 066 2 -6.1
2018-Feb-24 02:16 054 2 -5.6
2018-Feb-24 02:01 042 2 -5.6
2018-Feb-24 01:46 073 2 -5.0
2018-Feb-24 01:31 061 2 -5.0
2018-Feb-24 01:16 085 3 -5.0
2018-Feb-24 01:01 065 2 -5.0
2018-Feb-24 00:46 069 2 -5.0
2018-Feb-24 00:31 065 2 -5.0
2018-Feb-24 00:16 098 2 -5.0
2018-Feb-23 23:58 053 1 -5.0
2018-Feb-23 23:43 063 1 -5.0
2018-Feb-23 23:28 057 1 -5.0
2018-Feb-23 23:13 054 0 -5.0
2018-Feb-23 22:57 053 1 -5.0
2018-Feb-23 22:42 048 0 -5.0
2018-Feb-23 22:27 069 1 -5.0
2018-Feb-23 22:12 098 1 -5.0
2018-Feb-23 21:56 040 1 -5.0
2018-Feb-23 21:41 053 2 -5.0
2018-Feb-23 21:26 074 1 -5.0
2018-Feb-23 21:11 082 1 -5.0
2018-Feb-23 20:56 036 0 -5.0
2018-Feb-23 20:41 074 1 -5.0
2018-Feb-23 20:26 055 1 -5.6
2018-Feb-23 20:11 054 1 -5.6
2018-Feb-23 19:56 049 1 -5.6
2018-Feb-23 19:41 052 1 -5.6
2018-Feb-23 19:26 043 -5.6
2018-Feb-23 19:09 043 -5.6
2018-Feb-23 18:53 044 -5.6
2018-Feb-23 18:38 048 -5.6
2018-Feb-23 18:23 048 0 -5.6
2018-Feb-23 18:07 061 0 -5.6
2018-Feb-23 17:52 061 0 -5.6
2018-Feb-23 17:37 050 -5.6
2018-Feb-23 17:22 048 -5.6
2018-Feb-23 17:07 050 0 -5.0
2018-Feb-23 16:51 050 -4.4
2018-Feb-23 16:36 050 -4.4
2018-Feb-23 16:21 051 0 -4.4
2018-Feb-23 16:06 052 -3.9
2018-Feb-23 15:51 052 -3.3
2018-Feb-23 15:36 052 -2.8
2018-Feb-23 15:21 052 0 -2.2
2018-Feb-23 15:06 054 -1.7
2018-Feb-23 14:49 054 -0.6
2018-Feb-23 14:33 054 0 0.6
2018-Feb-23 14:18 066 1.1
2018-Feb-23 14:03 068 1 1.7
2018-Feb-23 13:48 081 1.7
2018-Feb-23 13:32 086 1 2.2
2018-Feb-23 13:18 103 0 2.8
2018-Feb-23 13:02 118 0 2.2
2018-Feb-23 12:47 097 2.2
2018-Feb-23 12:32 097 2.2
2018-Feb-23 12:16 092 2.2
2018-Feb-23 12:01 092 1.1
2018-Feb-23 11:46 091 0 1.1
2018-Feb-23 11:31 065 1 1.1
2018-Feb-23 11:16 052 0 1.1
2018-Feb-23 11:01 021 0.6
2018-Feb-23 10:46 032 -0.6
2018-Feb-23 10:29 354 -1.1
2018-Feb-23 10:16 039 -1.7
2018-Feb-23 09:59 040 -2.2
2018-Feb-23 09:43 043 -3.3
2018-Feb-23 09:28 044 -3.9
2018-Feb-23 09:13 044 -5.0
2018-Feb-23 08:58 044 -5.6
2018-Feb-23 08:42 044 -5.6
2018-Feb-23 08:27 044 -6.1
2018-Feb-23 08:12 044 -6.7
2018-Feb-23 07:57 044 -6.7
2018-Feb-23 07:41 044 -6.7
2018-Feb-23 07:26 044 -6.7
2018-Feb-23 07:11 044 -6.7
2018-Feb-23 06:56 044 -6.7
2018-Feb-23 06:41 044 -6.7
2018-Feb-23 06:26 043 -6.7
2018-Feb-23 06:11 043 -6.7
2018-Feb-23 05:56 044 -6.7
2018-Feb-23 05:39 043 -6.7
2018-Feb-23 05:24 044 -6.7
2018-Feb-23 05:08 043 -6.7
2018-Feb-23 04:53 044 -7.2
2018-Feb-23 04:38 044 -7.2
2018-Feb-23 04:23 043 -7.2
2018-Feb-23 04:08 044 -7.8
2018-Feb-23 03:52 044 -7.8
2018-Feb-23 03:37 044 -7.8
2018-Feb-23 03:22 044 -7.2
2018-Feb-23 03:06 044 -7.2
2018-Feb-23 02:51 052 -7.2
2018-Feb-23 02:36 052 -7.2
2018-Feb-23 02:21 052 -7.2
2018-Feb-23 02:06 052 -7.2
2018-Feb-23 01:51 052 -7.2
2018-Feb-23 01:36 052 -7.2
2018-Feb-23 01:21 052 -7.2
2018-Feb-23 01:06 052 -7.2
2018-Feb-23 00:51 052 -7.2
2018-Feb-23 00:33 052 -7.2
2018-Feb-23 00:21 052 -7.2
2018-Feb-23 00:03 052 -7.2
2018-Feb-22 23:48 052 -7.2
2018-Feb-22 23:32 052 -7.2
2018-Feb-22 23:18 052 -7.2
2018-Feb-22 23:03 052 -7.2
2018-Feb-22 22:47 052 -7.2
2018-Feb-22 22:31 052 -7.2
2018-Feb-22 22:16 055 -7.2
2018-Feb-22 22:01 056 -7.2
2018-Feb-22 21:46 055 -7.2
2018-Feb-22 21:32 056 -7.8
2018-Feb-22 21:16 056 -7.2
2018-Feb-22 21:02 056 -7.2
2018-Feb-22 20:46 055 -7.2
2018-Feb-22 20:31 055 -7.2
2018-Feb-22 20:16 055 -7.2
2018-Feb-22 19:59 055 -7.2
2018-Feb-22 19:46 055 -6.7
2018-Feb-22 19:32 055 -6.7
2018-Feb-22 19:13 055 -6.7
2018-Feb-22 18:58 055 -6.1
2018-Feb-22 18:43 055 -6.1
2018-Feb-22 18:27 055 -6.1
2018-Feb-22 18:12 055 -6.1
2018-Feb-22 17:57 055 -5.6
2018-Feb-22 17:42 055 -5.6
2018-Feb-22 17:27 055 -5.0
2018-Feb-22 17:11 055 -4.4
2018-Feb-22 16:56 055 -3.9
2018-Feb-22 16:41 055 -3.3
2018-Feb-22 16:26 055 -2.8
2018-Feb-22 16:11 055 -2.2
2018-Feb-22 15:56 055 -1.7
2018-Feb-22 15:41 055 -1.1
2018-Feb-22 15:26 055 -1.1
2018-Feb-22 15:11 055 -1.1
2018-Feb-22 14:56 055 -0.0
2018-Feb-22 14:39 055 1.1
2018-Feb-22 14:23 055 1.1
2018-Feb-22 14:08 055 1.7
2018-Feb-22 13:53 055 1.7
2018-Feb-22 13:38 055 2.2
2018-Feb-22 13:22 055 2.2
2018-Feb-22 13:07 055 2.8
2018-Feb-22 12:52 054 2.8
2018-Feb-22 12:37 053 2.2
2018-Feb-22 12:21 052 2.2
2018-Feb-22 12:06 051 1.7